Torna al catalogo

CZ-6A DEB

AttivoPO
NORAD 60839·DEBRIS·🇨🇳 China

Lanciato Aug 6, 2024 da Taiyuan Satellite Launch Center

Loading…

Prossimi Passaggi (prossime 24 ore)

TLE

AggiornatoSource: Space-Track

Epoca: Sep 14, 2026, 00:24 UTC

1 60839U 24140HS  26257.01708831  .00000224  00000-0  17332-3 0  9994
2 60839  88.9496 267.1254 0262237  66.4844 296.3640 13.74074826104617

Traccia CZ-6A DEB in tempo reale con AllMySat

Download on the App Store